Home   Weather   Chur   Past weeks

Flag for Switzerland Past Weather in Chur, Graubünden, Switzerland — Yesterday and Last 2 Weeks

Now
61 °F

Cool.


Feels Like: 61 °F
Forecast: 48 / 72 °F
Wind: 1 mph from North

Location: Chur

Current Time: May 24, 2017 at 4:11:03 am

Latest Report: May 24, 2017 at 3:00 am


Visibility: N/A

Pressure: 30.16 "Hg (28.12 "Hg at 592m altitude)

Humidity: 69%

Dew Point: 50 °F

Location of ChurLocation

Past Weather in Chur — Graph

°F

Chur Temperature Yesterday

Maximum temperature yesterday: 78 °F (at 3:00 pm)
Minimum temperature yesterday: 53 °F (at 6:00 am)
Average temperature yesterday: 67 °F

High & Low Weather Summary for the Past Weeks

 TemperatureHumidityPressure
High81 °F (May 17, 4:00 pm)93% (May 14, 4:00 am)30.47 "Hg (May 14, 4:00 am)
Low40 °F (May 10, 3:00 am)24% (May 10, 3:00 pm)29.50 "Hg (May 11, 6:00 pm)
Average61 °F57%30.02 "Hg
* Reported May 9 2:00 am — May 24 2:00 am, Chur. Weather by CustomWeather, © 2017

Note: Actual official high and low records may vary slightly from our data, if they occured in-between our weather recording intervals... More about our weather records

Advertising

Chur Weather History for the Previous 24 Hours

Scroll right to see more
 ConditionsComfort  
Time TempWeatherWind HumidityBarometerVisibility
2:00 am
Wed, May 24
62 °FCool.No wind68%30.15 "HgN/A
1:00 am63 °FMild.1 mph64%30.15 "HgN/A
12:00 am63 °FMild.2 mph61%30.14 "HgN/A
11:00 pm
Tue, May 23
67 °FPassing clouds.6 mph51%30.12 "Hg9 mi
10:00 pm69 °FMild.6 mph47%30.09 "HgN/A
9:00 pm72 °FMild.10 mph41%30.06 "HgN/A
8:00 pm73 °FOvercast.10 mph38%30.04 "Hg11 mi
7:00 pm75 °FMild.13 mph33%30.02 "HgN/A
6:00 pm76 °FMild.10 mph32%30.01 "HgN/A
5:00 pm76 °FOvercast.12 mph31%30.00 "Hg11 mi
4:00 pm78 °FPleasantly warm.8 mph28%30.00 "HgN/A
3:00 pm78 °FPleasantly warm.9 mph26%30.00 "HgN/A
2:00 pm77 °FPartly sunny.9 mph32%30.02 "Hg12 mi
1:00 pm77 °FMild.9 mph32%30.02 "HgN/A
12:00 pm75 °FMild.10 mph34%30.04 "HgN/A
11:00 am73 °FPartly sunny.2 mph43%30.06 "Hg11 mi
10:00 am67 °FMild.1 mph49%30.09 "HgN/A
9:00 am63 °FMild.3 mph56%30.12 "HgN/A
8:00 am58 °FOvercast.1 mph63%30.13 "Hg6 mi
7:00 am54 °FCool.2 mph74%30.14 "HgN/A
6:00 am53 °FCool.1 mph78%30.13 "HgN/A
5:00 am54 °FPassing clouds.1 mph76%30.12 "Hg9 mi
4:00 am55 °FCool.2 mph74%30.11 "HgN/A
Weather by CustomWeather, © 2017

See weather overviewHow to use our weather pages